Regional Weather Roundup
Issued by NWS

Home | Current Version | Previous Version | Text Only | Print | Product List | Glossary On
Versions: 1 2 3 4 5 6 7 8 9 10 11 12 13 14 15 16 17 18 19 20 21 22 23 24 25 26 27 28 29 30 31 32 33 34 35 36 37 38 39 40 41 42 43 44 45 46 47 48 49 50
000
ASUS44 KLIX 041013
RWRLA
LOUISIANA WEATHER ROUNDUP
NATIONAL WEATHER SERVICE NEW ORLEANS LA
400 AM CST SUN DEC 04 2016

NOTE: "FAIR" INDICATES FEW OR NO CLOUDS BELOW 12,000 FEET WITH NO
      SIGNIFICANT WEATHER AND/OR OBSTRUCTIONS TO VISIBILITY.
      SKY/WX - SKY CONDITION AND SIGNIFICANT WEATHER.
      TMP - AIR TEMPERATURE.    DP   - DEWPOINT TEMPERATURE.
      RH  - RELATIVE HUMIDITY.  PRES - PRESSURE.
      HX  - HEAT INDEX.         WCI  - WIND CHILL INDEX.

*  THESE STATIONS ARE NOT NWS OR FAA STATIONS AND ARE NOT UNDER
   NWS QUALITY CONTROL.

LAZ040-048-061>063-065-066-069-041100-
SOUTHEAST LOUISIANA

CITY           SKY/WX    TMP DP  RH WIND       PRES   REMARKS
N.O. AUDUBON   NOT AVBL
N.O. INTL ARPT CLOUDY    63  63 100 NE6       29.88F FOG
N.O. LAKEFRONT CLOUDY    63  62  97 E8        29.89F FOG
N.O. DOWNTOWN*   N/A     65  63  93 NE7       29.88F
RESERVE*       CLOUDY    63  61  94 NE3       29.90F FOG
SLIDELL        LGT RAIN  62  60  93 VRB3      29.90F FOG
BATON ROUGE    RAIN      62  61  96 SE12      29.89S FOG
BOOTHVILLE     CLOUDY    69  69 100 S10       29.88R
BELLE CHASSE   CLOUDY    64  64 100 NE6       29.87F
BOGALUSA*      CLOUDY    56  51  83 N5        29.95S
GALLIANO*      CLOUDY    68  65  91 CALM      29.87S FOG
NEW ROADS*     LGT RAIN  62  62 100 SE12      29.85S
GONZALES*      CLOUDY    60  59  97 SW6       29.92R
HAMMOND*       CLOUDY    55  54  94 N3        29.92F
HOUMA*         CLOUDY    65  65  99 N5        29.87F FOG
PORT FOURCHON* CLOUDY    73  70  88 S12G17    29.86F FOG

$$

LAZ041-044-053-054-041100-
SOUTHWEST LOUISIANA

CITY           SKY/WX    TMP DP  RH WIND       PRES   REMARKS
LAKE CHARLES   LGT RAIN  54  54 100 NW12      29.90R FOG
LAFAYETTE      RAIN      66  65  96 SE8       29.84F
PATTERSON      CLOUDY   N/A N/A N/A NE9       29.87F
SALT POINT     NOT AVBL
NEW IBERIA     LGT RAIN  65  63  93 NE5       29.87F
CHENAULT AIRPK CLOUDY    53  53  99 NW15      29.91R

$$

LAZ027-028-041100-
CENTRAL LOUISIANA

CITY           SKY/WX    TMP DP  RH WIND       PRES   REMARKS
FORT POLK      CLOUDY    48  48 100 N9        29.91R FOG
ALEXANDRIA INT LGT RAIN  49  49 100 N8        29.90R FOG
ALEXANDRIA     CLOUDY    50  49  96 VRB6      29.91S

$$

LAZ001-002-041100-
NORTHWEST LOUISIANA

CITY           SKY/WX    TMP DP  RH WIND       PRES   REMARKS
SHREVEPORT     CLOUDY    49  47  93 N8        29.93F
BARKSDALE AFB  CLOUDY    47  47 100 N5        29.94S
DTN SHREVEPORT CLOUDY    48  46  93 NW5       29.94F

$$

LAZ014-016-041100-
NORTHEAST LOUISIANA

CITY           SKY/WX    TMP DP  RH WIND       PRES   REMARKS
MONROE         CLOUDY    47  45  93 NE7       29.97F FOG
TALLULAH       CLOUDY    48  46  93 N6        29.95R

$$




USA.gov is the U.S. government's official web portal to all federal, state and local government web resources and services.